Temperature
4 4 4 4 4 4 4 4 4 4 4 5 5 5 5 5 5 5 5 5 5 6 6 6 6 6 6 6 6 5 5 5 5 5 5 5 5 6 6 6 6 6 6
3 4 4 4 4 4 4 4 4 4 4 4 4 4 5 5 5 5 5 5 5 5 5 5 5 5 5 5 5 5 5 5 5 4 4 4 4 4 5 5 5 5 5
2 2 3 3 3 3 3 3 3 3 3 3 4 4 4 4 4 4 4 4 4 4 4 4 4 4 4 4 4 4 4 4 4 4 4 4 4 3 4 4 4 5 5
1 1 2 2 2 2 2 2 3 3 3 3 3 3 3 3 4 4 4 4 4 4 4 4 4 3 3 4 4 3 4 3 3 3 3 3 3 3 3 3 4 4 4
0 1 1 1 1 2 2 2 2 2 2 2 2 2 3 3 3 3 3 3 3 3 3 3 3 3 3 3 3 3 3 3 3 3 3 3 3 3 2 2 3 3 3
-0 -0 0 0 1 1 1 1 1 2 2 2 2 2 2 2 2 2 2 2 2 2 2 2 2 2 2 2 2 2 2 2 2 2 2 2 2 2 2 2 2 2 3
-1 -1 -1 -0 0 0 0 0 1 1 1 1 1 1 1 2 2 2 2 2 2 2 2 2 2 2 2 2 2 2 2 2 1 1 1 1 2 2 2 2 1 1 2
-2 -2 -1 -1 -1 -0 -0 -0 -0 0 0 1 1 1 1 1 1 1 1 1 1 2 1 1 1 1 1 1 1 1 1 1 1 1 1 1 1 1 1 1 1 1 0
-3 -2 -2 -2 -1 -1 -1 -1 -1 -0 -0 -0 0 0 0 0 1 1 1 1 1 1 1 1 1 1 1 1 0 1 1 1 1 0 0 -0 -0 0 0 1 0 0 -0
-3 -3 -2 -2 -2 -2 -2 -2 -1 -1 -1 -1 -1 -0 -0 -0 -0 -0 0 0 0 0 0 0 0 0 0 0 0 -0 -0 -0 -0 -0 -0 -1 -1 -1 -0 -0 -0 -0 -1
-4 -4 -3 -3 -3 -3 -2 -2 -2 -2 -1 -1 -1 -1 -1 -1 -1 -0 -0 -0 -0 -0 -0 -0 -0 -0 -0 -0 -0 -1 -1 -1 -1 -1 -1 -1 -1 -1 -1 -1 -1 -1 -1
-4 -4 -4 -4 -4 -3 -3 -3 -3 -2 -2 -2 -2 -2 -1 -1 -1 -1 -1 -1 -1 -1 -1 -1 -1 -1 -1 -1 -1 -1 -1 -1 -1 -1 -1 -1 -1 -2 -2 -2 -2 -2 -1
-5 -5 -5 -5 -4 -4 -4 -4 -3 -3 -3 -3 -2 -2 -2 -2 -2 -2 -2 -1 -1 -1 -1 -1 -1 -1 -1 -1 -1 -2 -2 -2 -2 -2 -2 -2 -2 -2 -2 -2 -2 -2 -2
-5 -5 -5 -5 -5 -5 -5 -4 -4 -4 -4 -3 -3 -3 -3 -3 -2 -2 -2 -2 -2 -2 -2 -2 -2 -2 -2 -2 -2 -2 -2 -2 -2 -2 -2 -2 -3 -3 -3 -3 -3 -3 -3
-6 -6 -6 -6 -6 -5 -5 -5 -5 -5 -4 -4 -4 -4 -3 -3 -3 -3 -3 -3 -3 -3 -3 -3 -3 -3 -3 -2 -3 -3 -3 -3 -3 -3 -3 -3 -3 -3 -3 -3 -3 -3 -3
-7 -7 -7 -6 -6 -6 -6 -6 -5 -5 -5 -5 -5 -4 -4 -4 -4 -4 -4 -4 -4 -4 -4 -4 -4 -3 -3 -3 -3 -4 -4 -4 -4 -4 -4 -4 -4 -4 -4 -4 -4 -4 -4
-7 -7 -7 -7 -7 -7 -7 -7 -6 -6 -6 -5 -5 -5 -5 -5 -5 -5 -5 -5 -5 -4 -4 -4 -4 -4 -4 -4 -4 -4 -4 -4 -4 -4 -4 -4 -4 -4 -4 -4 -4 -4 -4
-8 -8 -7 -7 -7 -7 -7 -7 -7 -7 -6 -6 -6 -6 -6 -6 -6 -6 -5 -5 -5 -5 -5 -5 -5 -5 -5 -5 -5 -5 -5 -5 -5 -5 -5 -5 -5 -5 -5 -5 -5 -5 -5
-8 -8 -8 -8 -8 -8 -8 -8 -7 -7 -7 -7 -7 -7 -7 -7 -6 -6 -6 -6 -6 -6 -6 -6 -6 -6 -6 -6 -6 -6 -6 -6 -6 -5 -5 -5 -5 -5 -5 -6 -5 -5 -5
-9 -9 -9 -9 -9 -8 -8 -8 -8 -8 -8 -8 -8 -8 -7 -7 -7 -7 -7 -7 -7 -7 -7 -7 -7 -7 -6 -6 -6 -6 -7 -6 -6 -6 -6 -6 -6 -6 -6 -6 -6 -6 -5
-9 -9 -9 -9 -9 -9 -9 -9 -9 -9 -9 -9 -9 -8 -8 -8 -8 -8 -8 -8 -8 -8 -8 -8 -7 -7 -7 -7 -7 -7 -7 -7 -7 -7 -7 -6 -6 -6 -6 -6 -6 -6 -6
-10 -10 -10 -10 -10 -10 -10 -10 -10 -10 -9 -9 -9 -9 -9 -9 -9 -9 -9 -9 -9 -9 -9 -8 -8 -8 -8 -8 -8 -8 -8 -8 -8 -7 -7 -7 -7 -7 -7 -7 -7 -6 -6
-10 -10 -11 -10 -10 -10 -10 -10 -10 -10 -10 -10 -10 -10 -9 -9 -9 -9 -9 -9 -9 -9 -9 -9 -9 -9 -8 -8 -8 -8 -8 -8 -8 -8 -8 -7 -7 -7 -7 -7 -7 -7 -7
-11 -11 -11 -11 -11 -11 -11 -11 -11 -11 -11 -11 -10 -10 -10 -10 -10 -10 -10 -10 -10 -10 -10 -10 -10 -10 -9 -9 -9 -9 -9 -8 -9 -8 -8 -8 -8 -8 -8 -8 -8 -8 -8
-12 -12 -12 -12 -12 -12 -12 -12 -12 -11 -11 -11 -11 -11 -11 -11 -10 -10 -11 -10 -10 -11 -11 -10 -10 -10 -10 -10 -9 -9 -9 -9 -9 -9 -9 -9 -9 -9 -9 -8 -8 -8 -8
-12 -12 -12 -12 -12 -12 -12 -12 -12 -12 -12 -12 -12 -12 -11 -11 -11 -11 -11 -11 -11 -11 -11 -11 -11 -11 -11 -10 -10 -10 -10 -9 -9 -9 -9 -9 -9 -9 -9 -9 -9 -9 -9
Wind_Speed
5 5 5 6 7 7 7 7 6 6 5 3 3 4 4 4 3 4 4 5 4 4 3 2 3 2 2 2 2 2 2 1 1 1 1 1 1 1 1 1 1 0 0
4 3 4 6 7 7 7 7 7 6 6 4 4 3 4 3 4 4 4 5 5 4 4 3 3 3 2 2 3 3 2 1 1 1 2 2 3 2 2 1 1 1 1
5 4 3 5 6 6 7 7 7 7 7 6 4 2 3 3 4 4 4 5 5 5 5 5 4 4 4 4 4 3 3 3 2 2 2 2 3 1 3 3 3 2 2
3 3 3 3 4 5 6 6 7 7 6 6 6 6 5 5 5 5 5 5 6 6 6 6 5 5 4 4 5 5 4 4 4 3 2 2 2 2 2 3 4 4 3
2 2 2 3 3 4 4 5 6 6 6 6 6 7 6 6 4 5 5 5 6 6 6 7 6 6 5 5 5 5 5 5 5 4 3 3 3 4 4 4 4 4 4
2 2 2 2 2 2 3 4 5 6 6 6 7 7 7 6 6 6 6 6 5 5 7 7 7 7 7 7 6 6 7 6 6 6 5 5 4 5 5 5 5 4 4
2 2 2 2 2 2 2 4 5 6 6 7 7 7 8 7 8 7 7 6 5 6 7 8 8 8 8 8 8 7 7 7 7 7 6 6 6 4 5 5 4 4 3
3 3 3 3 3 3 3 3 5 6 6 7 7 7 7 6 6 7 7 7 7 7 8 9 9 9 9 8 8 7 8 7 8 8 7 6 6 5 5 5 4 4 4
4 4 4 4 4 4 4 4 5 5 6 6 6 6 7 7 7 7 7 7 7 7 8 9 9 10 9 9 9 7 8 8 8 8 8 7 6 6 6 6 6 6 6
4 5 5 5 5 5 4 4 4 5 5 5 6 5 7 7 8 7 8 8 8 8 8 9 9 10 10 10 9 9 9 9 9 7 9 8 7 7 6 7 7 7 7
5 5 5 5 5 5 4 4 4 4 5 5 5 6 7 7 7 8 8 8 8 8 8 9 9 10 10 10 10 10 10 11 10 10 10 10 9 7 7 7 7 8 8
5 5 5 5 5 5 5 5 5 4 5 5 5 6 6 6 7 8 8 8 8 8 9 9 10 10 11 11 11 12 11 12 12 12 11 11 9 10 8 8 9 9 9
5 5 5 5 6 6 6 6 6 6 6 5 5 5 6 6 7 8 8 8 8 9 9 9 10 10 11 11 12 12 12 12 13 12 13 12 11 12 9 10 9 9 8
6 6 6 6 6 6 6 6 7 6 6 6 5 6 6 7 7 8 8 8 8 9 9 10 10 11 11 11 11 12 12 12 12 12 13 13 13 13 12 10 11 10 10
7 7 7 7 8 7 7 7 7 7 6 6 6 6 6 7 7 7 7 7 8 9 9 9 10 10 10 10 11 11 12 12 12 12 13 13 15 15 13 11 11 10 10
8 8 8 8 8 8 8 8 8 8 7 7 7 7 6 6 6 7 7 7 8 8 9 10 10 10 9 11 13 12 11 12 13 12 12 13 15 16 17 17 16 14 13
8 8 9 8 8 8 8 8 9 8 8 7 7 7 7 7 7 7 7 8 8 8 9 9 10 10 11 12 13 14 11 12 12 12 12 10 11 14 13 15 17 16 17
9 9 8 9 9 8 8 8 8 8 7 7 7 7 7 7 7 7 7 8 8 8 8 9 9 10 10 12 13 14 12 11 12 12 12 12 12 12 13 12 12 13 14
9 8 8 9 8 8 8 7 7 7 7 7 7 7 7 7 8 8 8 8 8 8 8 8 9 10 11 12 13 13 10 10 12 12 12 13 13 15 15 12 12 11 11
8 7 8 8 8 7 7 7 7 7 7 8 8 8 8 8 8 9 9 8 8 8 8 9 9 10 11 12 13 14 9 10 10 10 11 14 15 15 15 13 12 12 11
8 8 7 7 7 7 6 7 7 7 8 8 8 8 8 8 8 8 8 8 8 8 8 9 9 9 10 12 14 14 10 10 9 9 9 10 15 16 16 15 12 13 10
8 7 7 7 7 6 6 7 8 8 8 8 8 8 9 8 7 8 8 8 7 8 8 8 8 7 8 10 12 14 14 12 10 9 9 10 14 15 16 14 13 14 11
8 7 7 8 7 7 6 7 8 8 8 8 8 8 9 8 7 7 7 7 6 6 6 6 7 7 6 7 11 13 14 14 11 9 11 12 13 14 13 14 13 11 9
8 7 7 8 8 8 8 8 8 8 8 8 8 8 8 8 7 6 6 6 6 6 6 7 7 7 7 7 6 7 9 11 11 9 11 13 13 11 10 10 9 8 8
8 7 7 8 9 9 9 9 8 7 8 8 8 8 7 7 7 6 6 7 7 7 7 7 7 7 7 8 9 8 7 7 8 7 6 6 7 7 7 7 7 7 7
8 7 8 8 9 9 9 8 8 7 7 7 7 7 6 6 6 6 6 8 9 11 12 12 10 9 11 11 11 12 11 10 9 7 6 7 7 7 7 7 7 7 7
Wind_Direction
244 228 214 206 203 203 201 200 195 190 183 184 190 187 186 180 173 171 171 169 165 158 155 154 153 153 156 160 154 152 150 145 153 147 135 153 186 200 191 206 224 194 21
252 235 217 206 205 204 204 203 202 199 197 201 200 211 191 193 188 182 184 184 181 174 177 175 179 176 174 172 169 162 178 183 190 186 180 200 205 210 238 239 244 250 254
261 249 232 217 211 210 210 211 208 204 203 201 192 187 187 189 196 194 193 195 194 190 190 195 196 194 188 192 193 192 194 203 212 221 211 205 222 237 220 235 239 245 261
274 264 246 234 228 222 216 217 213 208 204 199 201 202 212 211 211 204 202 201 204 203 201 200 206 208 208 204 206 207 216 212 212 222 245 259 233 215 226 225 232 241 247
305 288 275 252 243 237 226 221 216 212 206 204 207 212 221 221 213 207 208 209 210 213 210 208 207 212 217 215 214 217 223 220 223 224 226 237 240 232 230 244 246 248 247
336 328 321 292 263 247 232 229 219 215 210 210 213 217 224 224 214 213 215 216 217 219 219 216 216 215 219 219 219 221 227 230 230 230 224 224 230 224 228 239 244 253 254
344 342 342 329 297 267 253 236 230 225 219 216 219 222 227 230 223 220 221 223 224 225 222 220 223 222 221 220 220 221 225 228 229 231 233 231 236 236 233 232 245 259 267
358 352 339 324 312 295 279 260 243 241 231 225 227 229 230 233 233 227 229 229 230 231 228 224 226 228 225 223 221 223 226 227 230 234 237 236 234 231 231 232 234 247 254
347 343 339 333 322 306 294 282 263 253 243 235 234 235 234 236 241 236 234 235 237 236 229 227 228 228 227 225 224 226 227 227 228 231 234 238 237 232 234 233 227 231 242
341 339 336 332 329 319 306 295 279 268 255 243 240 241 240 241 246 239 236 238 240 237 233 231 229 227 226 226 225 228 228 228 229 230 231 235 240 234 232 233 232 234 241
330 331 331 330 328 330 323 309 297 290 278 259 248 247 248 246 248 243 241 241 241 238 235 233 230 228 226 224 226 228 227 227 229 228 229 233 236 237 232 232 231 231 234
328 331 331 332 331 331 331 325 312 301 296 284 264 255 255 252 252 248 245 244 244 243 240 238 235 232 231 227 226 228 228 228 230 230 230 232 231 235 234 230 231 231 232
329 334 332 330 328 326 324 324 321 312 305 297 280 268 264 258 257 254 250 248 246 245 243 240 238 236 235 232 229 229 229 230 232 232 231 231 229 231 233 232 233 232 232
322 328 327 324 321 318 316 316 316 313 307 302 291 279 274 268 266 261 256 251 248 246 244 242 241 240 238 236 233 230 230 232 233 232 232 231 230 231 230 232 233 232 229
316 316 315 317 316 314 314 313 312 312 305 296 290 284 281 279 275 268 265 259 253 250 248 246 245 243 239 236 233 232 231 233 234 234 233 233 233 233 230 231 231 231 228
306 308 309 311 311 310 310 310 309 308 304 292 288 288 285 282 276 272 269 264 259 255 251 246 245 244 241 237 236 237 237 235 235 236 237 236 234 234 234 236 234 233 231
303 305 306 303 304 305 304 302 303 304 299 291 290 289 285 280 277 276 272 266 263 260 255 252 249 248 247 241 239 236 239 238 236 235 236 236 234 234 235 238 235 236 237
303 304 305 305 306 306 304 302 301 298 291 288 288 288 284 280 279 275 272 271 266 260 258 257 255 254 253 245 242 240 240 241 239 237 236 236 236 231 231 235 235 235 237
300 300 302 303 304 303 303 302 301 301 295 293 293 292 288 282 279 275 273 272 270 267 263 262 258 257 257 250 245 245 242 241 241 238 236 236 236 233 231 233 234 235 239
305 306 308 307 305 305 304 299 299 301 298 297 296 295 288 281 275 274 275 274 270 267 265 263 260 259 260 255 249 245 241 240 242 240 237 235 236 234 229 230 231 233 236
313 313 310 307 305 306 302 298 298 297 299 300 298 295 291 283 276 274 273 271 268 266 264 265 264 261 260 257 252 246 238 236 239 240 237 234 231 233 232 233 235 235 234
317 317 314 311 311 307 302 299 300 303 305 303 299 297 294 287 280 274 274 271 266 263 264 265 267 265 262 258 253 247 242 239 238 241 241 236 231 232 233 234 235 231 227
315 317 315 313 314 312 306 301 304 308 306 303 301 300 298 291 281 275 274 272 265 261 263 263 266 269 268 262 255 250 246 240 240 243 242 241 234 233 234 235 231 224 224
316 318 316 313 315 317 314 308 308 307 304 302 301 301 300 296 289 280 274 269 265 263 263 264 266 269 269 266 260 248 246 242 241 244 242 240 234 231 232 230 227 225 224
315 315 312 311 313 315 314 313 312 311 305 302 300 301 298 296 294 285 277 272 266 265 267 267 267 268 268 266 266 262 250 243 238 236 236 228 225 222 222 221 223 221 217
313 313 313 313 314 314 313 313 311 307 303 302 302 302 300 298 296 293 289 280 275 277 274 273 273 272 272 277 271 265 260 255 243 236 229 227 224 221 219 219 220 220 220
Height
1495 1496 1496 1497 1499 1500 1501 1503 1504 1506 1507 1509 1510 1512 1513 1515 1516 1518 1519 1520 1521 1522 1523 1525 1526 1527 1528 1529 1530 1531 1532 1533 1534 1535 1535 1536 1537 1537 1538 1539 1539 1540 1540
1492 1492 1493 1494 1495 1496 1498 1499 1501 1502 1504 1505 1507 1509 1510 1512 1513 1515 1516 1517 1518 1519 1520 1521 1522 1524 1525 1526 1527 1528 1529 1530 1531 1532 1533 1535 1536 1535 1535 1536 1536 1537 1537
1489 1489 1490 1491 1492 1493 1494 1495 1497 1498 1500 1502 1503 1505 1507 1508 1509 1510 1512 1513 1514 1515 1517 1518 1519 1520 1521 1522 1523 1524 1526 1526 1528 1529 1531 1532 1532 1532 1532 1532 1532 1533 1533
1487 1487 1487 1487 1488 1490 1491 1492 1494 1495 1496 1498 1499 1500 1502 1503 1505 1506 1508 1509 1510 1512 1513 1514 1515 1516 1517 1518 1519 1520 1522 1523 1524 1526 1527 1528 1528 1529 1528 1529 1529 1529 1529
1485 1484 1484 1485 1486 1487 1488 1489 1490 1491 1493 1494 1495 1497 1498 1500 1501 1502 1504 1505 1506 1507 1508 1510 1511 1512 1513 1514 1515 1516 1518 1519 1520 1521 1522 1523 1524 1525 1525 1525 1525 1525 1525
1483 1483 1483 1483 1483 1484 1484 1485 1486 1487 1489 1490 1491 1493 1494 1495 1496 1497 1499 1500 1501 1502 1503 1505 1506 1507 1508 1509 1511 1512 1513 1514 1515 1517 1518 1518 1519 1520 1521 1521 1521 1521 1521
1482 1482 1481 1481 1481 1481 1481 1482 1483 1484 1485 1486 1487 1488 1490 1491 1492 1493 1494 1495 1496 1497 1498 1499 1501 1502 1503 1504 1505 1506 1508 1509 1510 1511 1512 1513 1515 1516 1516 1517 1517 1517 1516
1481 1480 1480 1479 1479 1479 1479 1479 1479 1480 1481 1482 1483 1484 1485 1486 1487 1488 1489 1490 1491 1492 1494 1494 1495 1496 1497 1499 1500 1501 1502 1503 1504 1505 1507 1508 1509 1510 1511 1512 1513 1512 1512
1480 1479 1478 1477 1477 1476 1476 1476 1476 1476 1477 1477 1478 1479 1480 1481 1482 1483 1484 1485 1486 1487 1488 1489 1489 1490 1491 1493 1494 1495 1496 1497 1498 1499 1501 1502 1503 1504 1505 1506 1508 1509 1508
1479 1478 1477 1476 1475 1474 1474 1473 1473 1473 1473 1473 1474 1475 1475 1476 1477 1478 1478 1479 1480 1481 1482 1482 1483 1484 1485 1487 1488 1488 1490 1491 1491 1493 1494 1496 1497 1498 1499 1500 1501 1502 1503
1478 1477 1475 1474 1473 1472 1471 1470 1470 1470 1470 1470 1470 1470 1471 1471 1471 1472 1472 1473 1474 1474 1475 1476 1477 1478 1479 1480 1481 1482 1483 1484 1485 1486 1488 1489 1490 1491 1492 1493 1494 1495 1497
1477 1475 1474 1472 1471 1469 1468 1467 1467 1466 1466 1465 1465 1465 1465 1466 1466 1466 1466 1467 1467 1468 1469 1469 1470 1471 1472 1473 1474 1475 1476 1477 1478 1479 1480 1481 1483 1484 1485 1486 1487 1489 1490
1475 1473 1472 1470 1468 1467 1466 1464 1463 1462 1461 1461 1460 1460 1460 1460 1460 1460 1460 1461 1461 1461 1462 1463 1463 1464 1465 1466 1467 1468 1469 1470 1471 1472 1473 1474 1476 1477 1478 1480 1481 1482 1483
1473 1471 1470 1468 1466 1465 1463 1461 1460 1459 1457 1456 1456 1455 1455 1455 1454 1454 1454 1454 1454 1455 1455 1456 1456 1457 1458 1459 1460 1461 1461 1462 1463 1465 1466 1467 1468 1470 1471 1473 1474 1475 1476
1471 1469 1467 1465 1464 1462 1460 1458 1456 1455 1453 1452 1451 1450 1450 1449 1449 1448 1448 1448 1448 1448 1448 1449 1449 1450 1450 1451 1452 1453 1454 1455 1456 1457 1458 1459 1461 1462 1464 1466 1467 1469 1469
1468 1466 1464 1463 1461 1459 1457 1455 1453 1451 1450 1448 1446 1446 1445 1444 1443 1443 1442 1442 1441 1441 1442 1441 1442 1442 1442 1443 1444 1445 1446 1447 1448 1449 1450 1452 1453 1455 1457 1458 1460 1461 1462
1465 1463 1461 1459 1457 1455 1453 1451 1449 1447 1445 1443 1442 1441 1440 1439 1438 1437 1436 1435 1435 1435 1435 1435 1434 1434 1435 1436 1437 1438 1439 1440 1440 1441 1443 1444 1445 1447 1449 1450 1451 1453 1454
1462 1460 1458 1455 1454 1451 1449 1447 1445 1442 1440 1439 1437 1436 1435 1433 1433 1431 1430 1430 1429 1429 1428 1428 1427 1427 1428 1429 1430 1431 1432 1432 1433 1434 1435 1436 1437 1439 1441 1442 1443 1444 1446
1459 1457 1454 1452 1449 1447 1445 1442 1440 1437 1435 1434 1432 1431 1429 1428 1427 1425 1424 1424 1423 1422 1421 1421 1421 1420 1420 1422 1423 1424 1424 1424 1425 1426 1427 1428 1430 1432 1434 1435 1436 1437 1438
1455 1452 1450 1448 1445 1442 1440 1438 1435 1433 1431 1429 1427 1426 1424 1422 1421 1420 1418 1418 1417 1415 1415 1414 1414 1414 1414 1414 1415 1416 1417 1417 1418 1419 1420 1421 1422 1425 1426 1428 1429 1430 1431
1451 1448 1446 1444 1441 1439 1437 1434 1431 1428 1426 1424 1422 1421 1419 1418 1416 1414 1413 1412 1411 1410 1409 1408 1407 1407 1407 1407 1408 1408 1409 1410 1410 1411 1412 1414 1415 1417 1419 1421 1422 1423 1426
1447 1444 1442 1439 1437 1435 1433 1430 1427 1425 1423 1420 1418 1416 1414 1413 1411 1409 1407 1406 1405 1404 1403 1402 1401 1400 1400 1400 1400 1401 1402 1403 1404 1404 1405 1407 1409 1410 1412 1414 1415 1418 1420
1443 1441 1438 1436 1433 1431 1429 1426 1423 1421 1419 1416 1414 1411 1409 1407 1406 1404 1402 1401 1400 1399 1397 1396 1395 1394 1394 1393 1393 1394 1394 1396 1397 1397 1399 1400 1402 1404 1406 1407 1409 1411 1413
1440 1437 1435 1432 1429 1427 1425 1422 1420 1417 1414 1412 1409 1407 1405 1403 1401 1399 1398 1396 1395 1393 1392 1391 1390 1389 1388 1387 1387 1387 1388 1389 1390 1392 1393 1394 1395 1397 1399 1401 1402 1404 1406
1437 1434 1431 1428 1426 1423 1421 1418 1416 1413 1410 1407 1405 1403 1400 1398 1396 1394 1393 1391 1389 1388 1387 1386 1385 1384 1382 1382 1382 1382 1382 1383 1384 1385 1386 1387 1388 1390 1391 1393 1395 1397 1399
1433 1430 1428 1425 1422 1420 1417 1414 1412 1409 1406 1403 1401 1398 1396 1394 1392 1390 1388 1386 1385 1383 1382 1381 1380 1378 1378 1377 1377 1377 1377 1377 1378 1379 1379 1380 1381 1383 1384 1386 1388 1390 1392